IQ1LY-3 Weather Reports


time (UTC)temp
C
wind
direction
speed
KPH
gust
KPH
rain 1hr
cm
rain 24hr
cm
rain mn
cm
humidity
%
barometer
mb
20260503202300 14 270 0.0 0.0 0.00 0.00 0.00 79 1017.9
20260503201157 15 293 0.0 0.0 0.00 0.00 0.00 79 1017.9
20260503200156 15 293 0.0 0.0 0.00 0.00 0.00 79 1017.9
20260503195155 15 293 0.0 0.0 0.00 0.00 0.00 79 1017.6
20260503194154 15 293 0.0 0.0 0.00 0.00 0.00 79 1017.6
20260503193153 15 293 0.0 0.0 0.00 0.00 0.00 78 1017.6
20260503192152 15 293 0.0 0.0 0.00 0.00 0.00 78 1017.6
20260503191151 16 0 0.0 0.0 0.00 0.00 0.00 77 1017.6
20260503190151 16 0 0.0 0.0 0.00 0.00 0.00 76 1017.6
20260503185150 16 23 0.0 0.0 0.00 0.00 0.00 76 1017.6
20260503184118 16 23 0.0 0.0 0.00 0.00 0.00 75 1017.6
20260503183117 17 113 0.0 0.0 0.00 0.00 0.00 75 1017.6
20260503182116 17 90 0.0 0.0 0.00 0.00 0.00 74 1017.3
20260503180942 17 113 0.0 0.0 0.00 0.00 0.00 73 1017.6
20260503175909 17 135 0.0 0.0 0.00 0.00 0.00 73 1017.6
20260503174908 17 135 0.0 0.0 0.00 0.00 0.00 72 1017.6
20260503173907 17 203 0.0 0.0 0.00 0.00 0.00 71 1017.6
20260503172907 17 45 0.0 0.0 0.00 0.00 0.00 71 1017.3
20260503171905 18 135 0.0 0.0 0.00 0.00 0.00 70 1017.6
20260503170904 18 68 0.0 1.6 0.00 0.00 0.00 70 1017.6
20260503130640 20 79 3.2 8.0 0.00 0.00 0.00 61 1019.3
20260503110457 20 103 4.8 6.4 0.00 0.00 0.00 64 1020.0
20260503090343 18 135 4.8 4.8 0.00 0.00 0.00 70 1020.3
20260503081235 18 158 1.6 3.2 0.00 0.00 0.00 66 1020.0
20260503080233 18 68 3.2 3.2 0.00 0.00 0.00 65 1020.0
20260503072230 17 128 3.2 3.2 0.00 0.00 0.00 62 1020.0
20260503071158 18 158 0.0 0.0 0.00 0.00 0.00 60 1020.0
20260503070157 18 180 0.0 0.0 0.00 0.00 0.00 59 1019.6
20260503060119 13 270 0.0 0.0 0.00 0.00 0.00 73 1019.6
20260503055047 12 248 0.0 0.0 0.00 0.00 0.00 77 1019.6
20260503054047 11 270 0.0 0.0 0.00 0.00 0.00 77 1019.6
20260503053046 11 270 0.0 0.0 0.00 0.00 0.00 76 1019.6
20260503052014 11 270 0.0 0.0 0.00 0.00 0.00 76 1019.6
20260503051012 10 270 0.0 0.0 0.00 0.00 0.00 75 1019.6
20260503050011 10 270 0.0 0.0 0.00 0.00 0.00 75 1019.6
20260503045011 10 270 0.0 0.0 0.00 0.00 0.00 75 1019.6
20260503043938 10 293 0.0 0.0 0.00 0.00 0.00 75 1019.6
20260503042938 10 270 0.0 0.0 0.00 0.00 0.00 74 1019.6
20260503041937 10 270 0.0 0.0 0.00 0.00 0.00 74 1019.3
20260503040937 10 270 0.0 0.0 0.00 0.00 0.00 73 1019.3
20260503035936 10 270 0.0 0.0 0.00 0.00 0.00 73 1019.6
20260503034904 10 270 0.0 0.0 0.00 0.00 0.00 73 1019.3
20260503033903 10 270 0.0 0.0 0.00 0.00 0.00 72 1019.3
20260503032902 10 270 0.0 0.0 0.00 0.00 0.00 72 1019.6
20260503031901 10 270 0.0 0.0 0.00 0.00 0.00 72 1019.6
20260503030901 10 270 0.0 0.0 0.00 0.00 0.00 72 1019.6
20260503025829 10 270 0.0 0.0 0.00 0.00 0.00 73 1019.6
20260503024828 10 270 0.0 0.0 0.00 0.00 0.00 73 1019.6
20260503023827 10 270 0.0 0.0 0.00 0.00 0.00 73 1019.6
20260503022826 10 270 0.0 0.0 0.00 0.00 0.00 73 1019.6
20260503021825 10 270 0.0 0.0 0.00 0.00 0.00 73 1019.6
20260503020721 10 293 0.0 0.0 0.00 0.00 0.00 73 1019.6
20260503015721 10 270 0.0 0.0 0.00 0.00 0.00 73 1019.6
20260503014720 11 270 0.0 0.0 0.00 0.00 0.00 72 1020.0
20260503013719 11 293 0.0 0.0 0.00 0.00 0.00 73 1020.0
20260503012718 11 270 0.0 0.0 0.00 0.00 0.00 73 1020.0
20260503011717 11 270 0.0 0.0 0.00 0.00 0.00 72 1019.6
20260503010716 11 270 0.0 0.0 0.00 0.00 0.00 70 1019.6
20260503005716 11 270 0.0 0.0 0.00 0.00 0.00 70 1020.0
20260503004715 11 270 0.0 0.0 0.00 0.00 0.00 70 1020.0
20260503003714 11 270 0.0 0.0 0.00 0.00 0.00 70 1020.0
20260503002713 11 270 0.0 0.0 0.00 0.00 0.00 70 1020.0
20260503001712 11 270 0.0 0.0 0.00 0.00 0.00 70 1020.3
20260503000711 11 270 0.0 0.0 0.00 0.00 0.00 70 1020.3
20260502235710 11 270 0.0 0.0 0.00 0.00 0.00 70 1020.3
20260502234708 11 270 0.0 0.0 0.00 0.00 0.00 70 1020.3
20260502233707 11 270 0.0 0.0 0.00 0.00 0.00 69 1020.3
20260502232706 11 293 0.0 0.0 0.00 0.00 0.00 69 1020.7
20260502231706 11 270 0.0 0.0 0.00 0.00 0.00 69 1020.7
20260502230705 11 270 0.0 0.0 0.00 0.00 0.00 68 1020.7
20260502225704 12 270 0.0 0.0 0.00 0.00 0.00 68 1020.7
20260502224703 12 270 0.0 0.0 0.00 0.00 0.00 68 1020.7
20260502223703 12 270 0.0 0.0 0.00 0.00 0.00 68 1020.7
20260502222702 12 270 0.0 0.0 0.00 0.00 0.00 67 1020.7
20260502221702 12 270 0.0 0.0 0.00 0.00 0.00 67 1021.0
20260502220701 12 270 0.0 0.0 0.00 0.00 0.00 67 1021.0
20260502215700 12 293 0.0 0.0 0.00 0.00 0.00 67 1021.0
20260502214659 12 270 0.0 0.0 0.00 0.00 0.00 67 1021.0
20260502213658 12 270 0.0 0.0 0.00 0.00 0.00 67 1021.0
20260502211459 13 270 0.0 0.0 0.00 0.00 0.00 64 1021.0
20260502210458 13 270 0.0 0.0 0.00 0.00 0.00 64 1021.0